Cosmos 1455 - Orbit

View from above orbital plane
View from above orbital plane
View from above satellite
View from above satellite

Ground track
Ground track

The orbit data is extracted from the following two-line orbital elements,

1 14032U 83037A   13141.77936815  .00003924  00000-0  25279-3 0  2682
2 14032 082.4914 108.2312 0014587 039.4014 028.5576 15.07994209636412
Epoch (UTC): 21 May 2013 18:42:17
Eccentricity: 0.0014587
inclination: 82.4914°
perigee height: 532 km
apogee height: 552 km
right ascension of ascending node: 108.2312°
argument of perigee: 39.4014°
revolutions per day: 15.07994209
mean anomaly at epoch: 28.5576°
orbit number at epoch: 63641

The dashed part of the orbit path shows where the satellite is in the earth's shadow,  

Developed and maintained by Chris Peat, Heavens-Above GmbH. Please read the updated FAQ before sending e-mail. Imprint. DLR